Find OneWeb SL0157

NORAD ID: 48055 Int'l Des: 2021-025 Owner: ONEWEBN Country: UK Constellation: oneweb operational
又名: ONEWEB-0157 spacetrack, celestrak
LEOCIRCULARPOLARONEWEB_TYPE

当前视图

正在加载3D地球...

About OneWeb SL0157

OneWeb SL0157 (NORAD 48055) is a oneweb constellation satellite launched Mar 25, 2021 by ONEWEBN of UK. It operates in LEO, CIRCULAR, POLAR, ONEWEB_TYPE orbit with a mass of 148.00 kg.

即将过境

Passes for default location (London). Set your location on the main map for personalized predictions.

高度历史

Loading altitude history...

两行轨道根数

1 48055U 21025P 26265.43249501 -.00000231 00000-0 -66758-3 0 9994
2 48055 87.8911 300.8744 0001520 99.7149 260.4152 13.13470795266331
Epoch: Sep 22, 2026 • Age: 10 hours

当前状态

高度 1239.6 km
远地点 / 近地点 N/A
速度 7.23 km/s
星下点 -85.96°S, 162.83°W
发射日期 Mar 25, 2021
运行时间 5.4 years
类型 internet

技术详情

分类 Payload
质量 148.00 kg
干质量 140.00 kg
长度 1.30 m
直径 1.00 m
跨度 5.00 m
形状 ? Trapezoid+2 pan
制造商 ONEWUS
平台类型 ARROW
阶段状态 In Orbit
所有者/国家 ONEWEBN/UK

Most Searched